Miscellaneous Local Product
Issued by NWS North Platte, NE

Home | Current Version | Previous Version | Graphics & Text | Print | Product List | Glossary On
Versions: 1 2 3 4 5 6 7 8 9 10 11 12 13 14 15 16 17 18 19 20 21 22 23 24 25 26 27 28 29 30 31 32 33 34 35 36 37 38 39 40 41 42 43 44 45 46 47 48 49 50
000
AXUS43 KLBF 291810
MISLBF


WESTERN AND NORTH CENTRAL NEBRASKA HOURLY WEATHER ROUNDUP
NATIONAL WEATHER SERVICE NORTH PLATTE NE
100 PM CDT FRI MAY 29 2015

***STATIONS NOT REPORTING VARIABLES SUCH AS SKY/WEATHER OR
PRESSURE ARE PROVIDED BY THE NEBRASKA DEPARTMENT OF
ROADS...RAWS...AND APRS NETWORKS...AND ARE NOT UNDER
NATIONAL WEATHER SERVICE QUALITY CONTROL***

...OBSERVATIONS IN AND NEAR THE EASTERN PANHANDLE OF NEBRASKA...

CITY           SKY/WX    TMP DP  RH WIND       PRES   REMARKS
PINE RIDGE     LGT RAIN  48  44  86 N16G25    30.21R
CHADRON        LGT RAIN  49  46  90 NE17G24   30.22R
ALLIANCE       LGT RAIN  49  49 100 N15       30.18R FOG
SIDNEY         PTSUNNY   63  52  67 N18G26    30.15F
WHITECLAY        N/A     45  43  91 S16         N/A
BIG SPRINGS      N/A     66  55  67 N12         N/A
$$

...OBSERVATIONS IN NORTH CENTRAL NEBRASKA...

CITY           SKY/WX    TMP DP  RH WIND       PRES   REMARKS
VALENTINE      LGT RAIN  53  51  93 N18G29    30.12R FOG
THEDFORD       CLOUDY    58  54  88 N20       30.10R
AINSWORTH      LGT RAIN  56  55  99 N22G29    30.08R
O`NEILL        CLOUDY    62  60  96 NW16G25   29.99R FOG
ORD            PTSUNNY   68  57  68 N17G25    29.97R
BROKEN BOW     PTSUNNY   72  56  57 N14G22    30.01R
BROWNLEE         N/A     56  54  92 N24         N/A
VALENTINE NWR    N/A     53  53  99 N17G24      N/A
SPRINGVIEW       N/A     56  52  87 N12G26      N/A
HALSEY           N/A     61  54  77 N13G23      N/A
BREWSTER         N/A     64  58  80 E23         N/A
ROSE             N/A     60  60  99 SW18        N/A
NEWPORT          N/A     56  55  97 W16         N/A
SARGENT          N/A     67  58  72 NW6G14      N/A
COMSTOCK         N/A     77  59  52 S20         N/A
EWING            N/A     68  62  82 NW7         N/A
$$

...OBSERVATIONS IN SOUTHWEST NEBRASKA AND FAR NORTHEAST COLORADO...

CITY           SKY/WX    TMP DP  RH WIND       PRES   REMARKS
WRAY           MOCLDY    69  53  55 N12G18    30.12S
HOLYOKE        FAIR      68  52  56 N12       30.12F
IMPERIAL         N/A     68  54  60 NW12      30.08F
OGALLALA       PTSUNNY   68  54  61 N14G20    30.09F
NORTH PLATTE   CLOUDY    67  55  65 N14       30.06S
MCCOOK         PTSUNNY   73  55  53 N14       30.03F
LEXINGTON      MOSUNNY   73  59  61 N14G21    30.01R
PAXTON           N/A     66  56  70 N8          N/A
GOTHENBURG       N/A     67  52  59 NW12        N/A
CALLAWAY         N/A     68  60  76 N13         N/A
$$

...NORTH PLATTE AREA...

CITY           SKY/WX    TMP DP  RH WIND       PRES   REMARKS
AIRPORT        CLOUDY    67  55  65 N14       30.06S
DOWNTOWN         N/A     69  55  60 N7          N/A
$$

...SOME WEATHER OBSERVATIONS FROM AROUND THE REGION...

CITY           SKY/WX    TMP DP  RH WIND       PRES   REMARKS
DENVER         PTSUNNY   65  44  46 VRB3      30.20F
LARAMIE        CLOUDY    51  38  60 N18       30.27S
CHEYENNE       PTSUNNY   57  40  52 NW20G26   30.23R
SCOTTSBLUFF    RAIN      53  53 100 W8        30.20R FOG
RAPID CITY     LGT RAIN  47  45  93 N21G30    30.24R FOG
PIERRE         CLOUDY    51  47  86 N24       30.14R
WINNER         LGT RAIN  55  51  86 N20       30.10R FOG
SIOUX FALLS    LGT RAIN  60  57  89 N16G29    29.93R
OMAHA          CLOUDY    75  60  59 SW9       29.92S
GRAND ISLAND   PTSUNNY   73  58  59 N12       29.97S
KANSAS CITY    LGT RAIN  67  66  97 SW6       30.01S
WICHITA        CLOUDY    73  65  75 SE8       29.98S
HAYS           PTSUNNY   73  57  56 W6        30.02R
LIBERAL        MOSUNNY   73  57  56 N8        30.06S
GOODLAND       PTSUNNY   69  53  56 N14G21    30.11S
$$



USA.gov is the U.S. government's official web portal to all federal, state and local government web resources and services.